Regional Weather Roundup
Issued by NWS Midland/Odessa, TX

Home | Current Version | Previous Version | Text Only | Print | Product List | Glossary On
Versions: 1 2 3 4 5 6 7 8 9 10 11 12 13 14 15 16 17 18 19 20 21 22 23 24 25 26 27 28 29 30 31 32 33 34 35 36 37 38 39 40 41 42 43 44 45 46 47 48 49 50
000
ASUS44 KMAF 250710
RWRMAF
MIDLAND AREA WEATHER ROUNDUP
NATIONAL WEATHER SERVICE MIDLAND TX
200 AM CDT THU MAY 25 2017

...IN SOUTHWEST TEXAS AND SOUTHEAST NEW MEXICO...

CITY           SKY/WX    TMP DP  RH WIND       PRES   REMARKS
ALPINE         CLEAR     67  31  26 SW10      29.92S
ANDREWS        FAIR      67  45  44 S15G23    29.70F
ARTESIA        CLEAR     75  27  16 SW18      29.67F
BIG SPRING     CLEAR     67  45  44 S18       29.71F
CARLSBAD       CLEAR     76  30  18 S6        29.66F
DRYDEN           N/A     65  51  60 N7        29.73F
FORT STOCKTON  CLEAR     67  47  48 S15       29.72F
GUAD PASS      CLEAR     74  23  15 W8        29.90S
HOBBS          CLEAR     64  41  42 S10       29.73S
MARFA          CLEAR     51  30  44 N6        29.92S
MIDLAND AIRPK  CLEAR     71  45  39 S16G24    29.71F
MIDLAND INTL   CLEAR     70  45  40 S16       29.70F
ODESSA         CLEAR     70  45  40 S16       29.71F
PECOS          CLEAR     65  27  23 CALM      29.68S
PRESIDIO       FAIR      76  36  23 N7        29.78F
SEMINOLE       CLEAR     66  43  43 SW10      29.71S
SNYDER         CLEAR     64  46  51 S9        29.70S
WINK           CLEAR     67  45  45 SE9       29.68F
$$
...OTHER STATIONS IN TEXAS...

CITY           SKY/WX    TMP DP  RH WIND       PRES   REMARKS
ABILENE        CLEAR     68  47  46 S17G24    29.67F
AMARILLO       CLEAR     57  39  51 SE15      29.65F
AUSTIN         PTCLDY    61  54  77 SW5       29.74F
BROWNSVILLE    CLEAR     69  62  78 SE9       29.81S
CORPUS CHRISTI CLEAR     62  60  93 S6        29.78S
DALLAS FTW     PTCLDY    64  50  60 E7        29.70R
DEL RIO        CLEAR     66  51  58 E7        29.72F
EL PASO        CLEAR     85  12   6 W7        29.78R
HOUSTON INT    CLEAR     67  52  58 S7        29.76F
LUBBOCK        CLEAR     69  39  33 S18       29.67F
SAN ANGELO     CLEAR     66  45  46 S9        29.71F
SAN ANTONIO    CLEAR     69  50  50 S9        29.77F
WACO           CLEAR     69  51  52 S13       29.69F
WICHITA FALLS  NOT AVBL
$$
...OTHER LOCATIONS IN NEW MEXICO...

CITY           SKY/WX    TMP DP  RH WIND       PRES   REMARKS
ALAMOGORDO     CLEAR     72  18  13 E6        29.78F
ALBUQUERQUE    PTCLDY    74  19  12 W18       29.81S
CANNON AFB     CLEAR     69  33  26 W10       29.70F
CLOVIS         CLEAR     66  37  34 W12       29.69S
HOLLOMAN AFB   CLEAR     70  18  14 E5        29.79S
ROSWELL        CLEAR     66  30  26 SW12      29.66F
RUIDOSO        PTCLDY    68  18  14 W16       29.96S
SANTA FE       CLEAR     58  23  26 CALM      29.85S
TRUTH OR CONSE CLEAR     76  17  11 NW9       29.81S
TUCUMCARI      CLEAR     61  43  51 W9        29.63F
$$



USA.gov is the U.S. government's official web portal to all federal, state and local government web resources and services.